TimeCST,TemperatureF,Dew PointF,Humidity,Sea Level PressureIn,VisibilityMPH,Wind Direction,Wind SpeedMPH,Gust SpeedMPH,PrecipitationIn,Events,Conditions,WindDirDegrees,DateUTC
6:00 AM,79,65,54,29.84,12,ENE,23.0,,,,Clear,60,2013-01-05 12:00:00
6:00 AM,78.8,64.4,61,29.83,-9999.0,ENE,23.0,34.5,N/A,,Clear,60,2013-01-05 12:00:00
7:00 AM,80.6,64.4,58,29.87,-9999.0,East,15.0,-,N/A,,Clear,80,2013-01-05 13:00:00
8:00 AM,84.2,64.4,51,29.88,-9999.0,ENE,20.7,32.2,N/A,,Clear,60,2013-01-05 14:00:00
9:00 AM,86,66,41,29.91,12,ENE,24.2,,,,Scattered Clouds,60,2013-01-05 15:00:00
9:00 AM,86.0,66.2,51,29.89,6.2,ENE,24.2,35.7,N/A,,Partly Cloudy,60,2013-01-05 15:00:00
10:00 AM,87.8,64.4,46,29.89,6.2,NE,26.5,-,N/A,,Partly Cloudy,50,2013-01-05 16:00:00
11:00 AM,89.6,66.2,46,29.88,6.2,NE,21.9,33.4,N/A,,Scattered Clouds,50,2013-01-05 17:00:00
12:00 PM,90,63,30,29.86,12,ENE,18.4,,,,Scattered Clouds,60,2013-01-05 18:00:00
12:00 PM,89.6,62.6,40,29.85,6.2,ENE,18.4,-,N/A,,Partly Cloudy,60,2013-01-05 18:00:00
1:00 PM,89.6,64.4,43,29.81,6.2,NE,19.6,-,N/A,,Partly Cloudy,40,2013-01-05 19:00:00
2:00 PM,91.4,60.8,36,29.78,6.2,ENE,17.3,-,N/A,,Partly Cloudy,70,2013-01-05 20:00:00
3:00 PM,91,61,26,29.78,12,NE,20.7,,,,Scattered Clouds,50,2013-01-05 21:00:00
3:00 PM,91.4,60.8,36,29.77,6.2,NE,20.7,-,N/A,,Partly Cloudy,50,2013-01-05 21:00:00
4:00 PM,89.6,60.8,38,29.77,6.2,ENE,20.7,-,N/A,,Partly Cloudy,60,2013-01-05 22:00:00
5:00 PM,86.0,66.2,51,29.79,6.2,NE,18.4,-,N/A,,Partly Cloudy,50,2013-01-05 23:00:00
6:00 PM,82,65,47,29.81,12,ENE,16.1,,,,Clear,60,2013-01-06 00:00:00
6:00 PM,82.4,64.4,54,29.80,-9999.0,ENE,16.1,-,N/A,,Clear,60,2013-01-06 00:00:00
7:00 PM,80.6,66.2,61,29.81,-9999.0,ENE,15.0,-,N/A,,Clear,60,2013-01-06 01:00:00
8:00 PM,80.6,66.2,61,29.84,-9999.0,ENE,15.0,-,N/A,,Clear,70,2013-01-06 02:00:00